Vorticity
14 14 14 14 14 13 14 14 16 17 16 14 12 11 10 10 9 9 10 9 9 8 7 6 6 7 7 8 9 10 11 12 13 13 14 14 13 13 13 13 13 14 14 15 15 14 14 13 12 11 10 10 9 8 8 7 7 6 6 6 6 5 5 5 4 4 3 3 3
13 13 14 15 14 14 15 16 17 17 15 13 11 10 10 9 9 9 8 8 7 6 5 5 5 6 7 8 10 11 12 13 14 14 14 14 14 14 14 14 15 15 15 14 14 13 11 10 9 8 7 7 7 7 7 6 7 7 7 6 6 6 5 5 4 3 2 2 2
12 14 15 15 15 15 16 17 17 16 14 12 11 10 10 10 9 8 7 6 5 4 4 4 4 6 7 9 10 11 12 13 14 14 15 15 15 15 15 15 15 15 14 13 11 9 8 7 6 6 6 6 6 7 7 7 7 7 7 7 7 6 6 5 4 3 3 2 2
13 15 15 15 15 16 16 16 16 15 13 11 11 11 11 10 9 7 6 4 3 3 3 3 4 6 7 9 10 11 12 12 13 14 15 16 16 16 16 15 14 13 11 9 7 6 5 5 6 6 6 7 7 7 6 6 6 6 6 6 7 7 6 6 6 5 4 4 2
14 16 16 15 15 16 16 16 15 13 12 11 11 11 11 10 8 6 4 3 3 3 3 3 4 6 7 8 9 10 11 12 13 15 16 17 16 15 14 13 11 9 7 6 5 4 4 5 6 6 7 7 6 6 6 5 5 5 6 6 5 6 6 6 6 5 5 5 4
15 15 15 15 15 15 15 16 14 13 11 11 11 11 10 9 8 6 5 4 3 3 3 4 4 5 6 7 8 10 12 13 15 16 16 16 15 13 11 9 7 6 4 4 4 4 5 6 6 7 6 6 6 5 5 4 5 5 6 5 5 5 5 5 5 5 5 6 6
16 15 15 14 15 15 15 15 13 12 11 11 11 10 10 9 9 7 7 6 5 4 4 3 3 4 5 6 8 10 13 15 16 15 15 14 12 10 7 6 4 4 3 4 4 5 6 6 7 6 6 5 5 4 4 4 4 5 5 5 5 5 5 5 6 6 6 7 7
17 16 14 14 14 14 14 14 13 13 12 11 11 11 11 11 11 10 10 8 7 5 3 2 2 3 4 6 9 12 14 15 15 14 13 11 9 7 5 4 3 4 4 4 5 6 6 6 6 6 5 4 4 4 4 4 4 5 5 5 5 5 6 6 7 8 8 9 9
16 15 14 14 15 15 15 15 14 13 12 12 12 12 13 13 13 12 10 8 6 4 2 1 1 2 4 7 11 13 15 16 15 13 10 8 6 5 4 3 4 4 5 6 6 6 6 6 5 5 4 4 4 4 4 5 5 6 6 6 6 7 7 8 9 10 11 11 11
16 16 16 16 17 17 16 16 14 13 12 12 13 13 13 13 11 10 8 6 4 2 1 -0 1 3 6 10 14 16 16 15 13 11 8 6 4 4 4 4 5 5 6 6 6 6 5 5 5 4 4 4 5 5 5 6 6 7 7 7 7 8 9 9 10 11 12 12 12
17 18 19 19 19 18 17 15 14 13 12 12 12 12 11 10 8 7 5 3 2 1 -0 -0 2 6 10 14 16 17 16 13 11 8 6 4 4 4 4 5 6 6 6 6 6 5 5 5 5 5 5 5 6 6 6 7 8 8 9 9 10 10 10 11 11 11 11 12 12
19 20 21 20 19 18 16 13 12 11 11 11 11 10 9 7 6 5 3 2 1 -0 -0 1 6 10 14 17 17 16 13 10 8 6 4 4 4 5 5 6 6 6 6 6 5 5 5 5 5 5 6 6 7 8 8 9 10 10 11 12 12 12 13 13 12 12 12 12 12
20 20 21 20 18 15 13 11 11 10 10 10 9 8 7 6 5 4 2 1 -0 0 2 6 11 15 17 18 16 13 10 7 6 4 4 4 5 6 6 6 6 6 5 5 5 5 5 6 6 7 8 8 9 10 11 11 12 12 13 13 13 13 13 13 13 13 13 12 13
20 20 19 18 15 13 11 10 10 10 10 9 8 7 6 5 3 2 0 -1 0 3 7 12 16 18 18 16 13 10 7 5 4 4 5 5 6 6 6 6 6 5 5 5 5 6 7 7 8 9 10 10 11 12 12 13 13 13 12 12 12 12 13 13 13 13 14 14 15
19 19 17 15 13 12 11 11 10 10 10 9 7 6 5 3 1 0 -0 1 4 9 14 18 19 18 16 13 9 7 5 4 4 5 6 6 6 6 6 5 5 5 5 6 7 7 8 9 10 11 11 12 12 12 12 12 12 12 11 11 12 12 13 13 14 15 16 17 19
18 17 15 13 12 11 11 11 10 10 9 8 6 5 3 1 -0 0 3 7 11 15 18 19 17 15 11 8 6 5 4 5 5 6 6 6 6 6 6 5 6 6 7 7 8 9 10 11 11 11 12 11 11 11 11 11 11 11 11 11 12 13 14 15 16 18 20 21 23
16 15 14 12 11 11 10 10 9 9 8 6 4 2 1 -0 2 5 9 13 16 18 18 16 13 10 7 5 5 5 5 5 6 6 6 6 6 6 6 6 7 8 8 9 10 11 11 12 12 12 11 11 11 10 10 10 10 11 12 13 14 15 17 18 20 22 24 27 29
15 14 12 11 10 10 9 9 8 7 6 4 2 1 1 3 7 11 14 17 17 16 14 11 8 6 5 4 5 5 6 6 6 6 6 6 6 6 7 8 9 10 11 11 12 12 12 12 11 11 11 11 11 10 11 11 12 13 14 15 17 19 22 24 26 28 31 33 35
14 13 12 11 10 9 9 8 7 6 4 2 2 3 5 8 12 14 16 16 15 13 10 7 6 5 5 5 6 6 6 6 6 6 6 7 7 8 9 10 11 12 12 12 12 12 12 11 11 10 10 10 11 12 13 14 15 17 19 21 23 26 29 31 34 36 38 40 41
13 12 11 10 10 9 8 7 6 4 3 2 4 7 10 12 14 15 15 14 11 9 7 5 5 5 6 6 6 6 7 7 7 7 8 9 10 11 12 12 13 13 13 12 12 11 11 10 10 10 11 12 13 15 17 19 21 24 26 29 31 33 36 38 40 42 44 44 43
13 12 11 10 9 8 7 6 4 4 4 6 8 10 12 14 14 13 12 10 8 6 6 5 6 6 6 7 7 7 7 7 8 9 10 11 12 13 13 13 13 12 12 11 11 10 10 10 11 12 13 15 18 20 23 25 28 30 33 35 37 39 41 43 44 43 42 40 37
13 12 11 9 8 7 6 5 5 6 7 9 11 12 13 13 12 11 9 7 6 6 6 6 6 6 7 7 7 7 8 9 10 11 12 13 13 13 13 13 12 11 11 10 10 10 11 12 13 16 18 21 24 27 29 32 33 35 36 38 40 41 42 42 40 37 34 30 26
13 12 10 9 8 7 7 7 8 9 10 11 12 12 12 11 10 8 7 6 6 6 6 6 7 7 7 7 8 8 9 11 12 13 14 14 13 13 12 11 10 10 10 10 11 12 14 16 19 23 26 28 30 32 34 35 36 37 38 39 39 39 37 34 31 27 23 19 16
13 11 10 9 8 8 9 10 10 11 11 11 11 11 10 9 8 7 6 6 6 6 7 7 7 7 8 8 9 10 12 13 13 14 14 13 12 11 10 10 10 10 10 11 13 16 19 23 26 29 32 34 35 35 35 35 36 36 37 37 35 33 30 26 22 18 15 12 11
12 11 10 10 10 10 11 11 11 11 10 10 10 9 9 8 7 7 6 6 7 7 7 7 8 8 9 10 12 13 14 14 14 13 13 11 10 10 9 9 10 11 13 15 19 23 27 31 33 34 35 36 35 34 34 34 34 34 33 31 28 26 22 18 15 12 10 9 8
13 12 12 12 12 12 11 10 10 10 9 9 9 8 8 7 7 6 7 7 7 7 8 8 9 10 11 12 13 14 14 14 13 12 11 10 9 10 10 11 13 15 18 22 26 30 33 36 37 37 36 34 32 31 31 31 31 29 27 24 21 19 16 13 10 8 7 7 7
14 13 13 12 11 10 10 9 9 9 9 9 8 7 7 7 7 7 7 7 7 8 8 9 10 11 13 14 14 14 13 12 11 10 10 9 10 11 12 14 17 21 25 29 33 36 37 37 36 35 33 31 29 28 28 28 26 24 21 18 15 13 10 8 8 7 8 8 8
14 13 12 11 10 9 9 9 9 9 8 8 7 7 6 7 7 7 7 8 8 8 9 10 12 13 14 14 14 13 12 10 10 10 10 10 12 14 16 19 23 28 32 35 37 38 37 36 33 31 29 27 26 25 25 24 21 19 16 13 11 9 7 7 7 8 9 9 9
13 11 10 9 9 9 9 9 8 8 7 7 6 6 7 7 7 8 8 8 9 10 11 12 13 14 14 13 12 11 10 9 10 10 12 13 15 18 22 26 30 33 36 38 38 36 34 32 29 27 25 24 22 22 20 19 17 14 12 10 8 8 8 8 9 10 10 10 10
11 10 9 8 8 8 8 8 7 7 6 6 6 7 7 8 8 8 9 9 10 11 12 13 13 13 13 11 10 10 10 10 11 13 15 17 20 24 28 32 35 37 38 37 35 32 30 27 26 24 22 20 19 18 16 14 13 11 10 9 9 9 10 11 11 11 11 11 11
9 8 8 8 8 8 8 7 7 6 6 7 7 8 8 8 9 9 10 10 11 12 13 13 13 12 11 10 10 10 11 13 15 17 20 23 26 29 33 35 37 37 36 33 30 28 25 24 22 21 19 18 16 15 13 12 10 10 9 10 10 11 11 12 12 12 11 11 11
8 7 7 7 7 7 7 6 6 6 7 7 8 8 9 9 10 10 11 12 12 13 13 13 12 11 10 10 11 12 14 16 19 22 26 28 31 33 34 36 35 34 31 28 26 24 22 21 19 18 16 15 14 13 11 10 10 10 10 10 11 11 11 11 11 11 10 10 10
7 7 7 7 7 7 6 6 6 7 8 8 9 9 9 10 10 11 12 13 13 13 12 11 11 10 11 12 13 15 18 21 24 27 30 32 33 33 33 34 32 30 27 24 22 21 19 18 17 15 14 13 12 11 11 10 10 10 10 10 10 10 10 10 9 9 9 8 8
7 7 7 7 7 6 6 7 7 8 8 9 9 10 10 11 11 12 13 13 13 12 11 11 11 11 12 14 16 19 22 26 29 31 33 33 33 32 31 30 28 26 24 22 20 19 18 16 15 14 13 12 11 10 10 10 10 10 10 10 9 9 9 8 8 8 8 8 7
7 7 7 7 6 7 7 7 8 9 9 9 10 10 11 12 13 13 13 13 12 11 11 11 12 13 15 17 20 24 27 30 32 33 33 32 30 29 28 27 25 23 21 20 18 17 16 14 13 12 12 11 10 10 10 10 10 10 9 9 9 8 8 8 8 8 8 8 8
7 7 7 6 7 7 8 8 9 9 10 10 10 11 12 13 13 13 12 11 11 10 11 12 13 15 18 21 25 29 32 33 33 32 31 29 28 27 26 24 22 21 19 18 16 15 14 13 12 11 11 11 10 10 10 10 10 10 9 9 9 8 8 8 8 8 9 9 9
7 7 6 6 7 8 9 9 9 10 10 11 12 12 13 13 13 12 11 10 10 11 12 13 16 19 22 26 30 33 34 34 32 30 28 26 25 24 23 22 20 18 17 15 14 13 12 11 11 11 11 11 11 11 11 10 10 10 9 9 9 9 9 9 9 10 10 11 11
6 6 7 7 8 9 9 10 10 11 11 12 13 13 13 12 11 11 10 10 11 12 13 16 19 23 27 30 33 34 34 33 30 27 24 23 23 22 21 20 18 17 15 14 13 12 11 10 10 10 10 11 11 11 11 10 10 10 9 9 9 10 10 10 11 12 12 13 13
7 7 7 8 9 9 10 11 11 12 12 12 13 12 12 11 11 10 10 11 12 13 16 19 23 27 31 34 34 34 32 30 26 24 22 21 21 20 19 18 16 15 13 12 11 11 10 10 10 10 11 11 11 11 10 10 9 9 9 9 10 11 11 12 13 13 14 15 16
7 7 8 9 10 10 11 11 12 12 13 12 12 11 11 10 10 10 11 12 14 16 19 22 27 31 34 36 34 32 29 26 23 22 21 20 20 18 17 16 14 13 12 11 11 11 10 10 11 11 11 11 10 10 9 9 9 9 9 10 11 12 12 13 13 14 15 17 18
7 8 9 10 10 11 11 12 12 12 12 12 11 11 10 10 10 11 12 13 16 19 22 27 32 35 36 35 32 29 25 23 21 20 20 19 18 17 15 14 13 12 12 11 11 11 11 11 12 11 11 10 9 9 8 8 9 9 10 11 11 12 13 13 14 16 18 20 21
Height
5605 5603 5601 5599 5596 5594 5592 5590 5588 5586 5585 5583 5582 5581 5580 5579 5577 5576 5575 5573 5571 5570 5568 5567 5565 5564 5562 5561 5559 5557 5556 5554 5552 5551 5549 5548 5546 5545 5544 5543 5541 5541 5540 5539 5538 5537 5537 5536 5535 5535 5534 5534 5534 5534 5534 5534 5534 5533 5533 5533 5533 5533 5533 5533 5534 5534 5534 5534 5533
5600 5598 5596 5594 5591 5589 5587 5585 5584 5582 5581 5579 5578 5576 5575 5574 5573 5571 5570 5568 5567 5565 5564 5562 5561 5559 5558 5556 5555 5553 5551 5549 5548 5546 5545 5543 5542 5540 5539 5538 5536 5536 5535 5534 5533 5532 5531 5531 5530 5530 5529 5529 5529 5529 5528 5528 5527 5526 5526 5526 5526 5526 5526 5526 5526 5526 5526 5526 5526
5595 5593 5591 5589 5586 5584 5582 5581 5579 5578 5576 5575 5574 5572 5571 5569 5568 5566 5565 5563 5562 5560 5559 5557 5556 5554 5553 5551 5550 5548 5546 5544 5543 5541 5540 5538 5537 5536 5534 5533 5531 5531 5530 5529 5528 5527 5526 5526 5525 5524 5524 5524 5524 5523 5522 5522 5521 5520 5519 5519 5518 5518 5518 5518 5518 5518 5517 5517 5517
5590 5588 5586 5584 5582 5580 5578 5577 5575 5574 5572 5571 5569 5568 5567 5566 5564 5562 5560 5559 5557 5556 5554 5552 5551 5549 5548 5546 5545 5543 5541 5539 5538 5536 5535 5533 5532 5531 5529 5528 5527 5526 5525 5524 5522 5521 5521 5520 5519 5518 5518 5518 5517 5517 5516 5515 5515 5513 5512 5511 5511 5511 5510 5510 5509 5509 5509 5508 5508
5585 5583 5581 5579 5577 5576 5574 5572 5571 5569 5568 5566 5565 5564 5562 5561 5560 5558 5556 5554 5553 5551 5549 5548 5546 5544 5542 5541 5539 5537 5536 5534 5533 5531 5530 5528 5527 5526 5524 5523 5522 5521 5520 5518 5517 5516 5515 5514 5513 5512 5512 5511 5511 5510 5509 5508 5507 5506 5505 5505 5504 5503 5502 5502 5501 5501 5500 5500 5499
5580 5578 5576 5575 5573 5571 5569 5568 5567 5565 5564 5562 5561 5560 5558 5556 5555 5553 5551 5550 5548 5546 5545 5543 5541 5539 5537 5536 5534 5532 5531 5529 5528 5526 5525 5523 5522 5521 5519 5518 5517 5516 5514 5513 5512 5511 5509 5508 5507 5506 5506 5505 5504 5503 5502 5501 5500 5499 5498 5497 5497 5496 5495 5494 5494 5493 5492 5492 5491
5576 5574 5572 5571 5569 5567 5565 5564 5563 5561 5560 5558 5557 5555 5553 5552 5550 5548 5546 5545 5543 5541 5540 5538 5536 5534 5532 5530 5529 5527 5526 5524 5522 5521 5519 5518 5516 5515 5514 5513 5511 5510 5509 5507 5506 5505 5503 5502 5501 5500 5499 5499 5498 5497 5496 5495 5493 5492 5491 5491 5490 5489 5488 5487 5486 5486 5485 5484 5484
5572 5571 5569 5567 5565 5563 5561 5560 5558 5557 5556 5554 5553 5551 5549 5547 5546 5544 5542 5540 5538 5537 5535 5533 5531 5529 5527 5525 5524 5522 5521 5519 5517 5516 5514 5513 5511 5510 5509 5507 5506 5505 5503 5502 5500 5499 5497 5496 5495 5494 5493 5492 5491 5490 5489 5488 5486 5485 5484 5484 5483 5483 5482 5481 5479 5478 5478 5477 5476
5569 5567 5565 5563 5561 5559 5557 5556 5554 5553 5551 5550 5548 5546 5545 5543 5541 5539 5537 5536 5534 5532 5530 5528 5526 5524 5522 5521 5519 5517 5516 5514 5513 5511 5510 5508 5507 5505 5504 5502 5501 5499 5498 5496 5495 5493 5491 5490 5489 5488 5487 5486 5484 5483 5482 5481 5480 5478 5478 5477 5477 5476 5475 5474 5473 5471 5471 5469 5468
5565 5563 5561 5559 5557 5555 5554 5552 5551 5549 5547 5546 5544 5542 5540 5538 5536 5534 5532 5531 5529 5527 5525 5523 5521 5519 5518 5516 5514 5513 5511 5509 5508 5506 5505 5503 5502 5500 5499 5497 5496 5494 5492 5491 5489 5487 5486 5484 5483 5482 5481 5480 5478 5476 5475 5474 5473 5471 5471 5470 5469 5469 5468 5467 5466 5465 5463 5461 5460
5561 5559 5557 5555 5553 5551 5550 5548 5546 5545 5543 5541 5539 5537 5535 5533 5531 5529 5527 5525 5523 5521 5520 5518 5516 5515 5513 5511 5509 5507 5506 5504 5502 5501 5500 5498 5496 5495 5493 5491 5490 5488 5486 5484 5482 5481 5479 5478 5476 5475 5474 5473 5471 5470 5468 5467 5466 5464 5463 5462 5461 5460 5460 5459 5458 5456 5455 5453 5452
5557 5555 5553 5551 5549 5547 5546 5544 5542 5541 5539 5536 5535 5533 5531 5529 5526 5524 5522 5520 5518 5517 5515 5513 5511 5510 5508 5506 5504 5502 5501 5499 5497 5496 5494 5492 5491 5489 5487 5485 5483 5481 5480 5478 5476 5474 5472 5471 5469 5468 5466 5465 5464 5462 5461 5459 5457 5456 5454 5453 5452 5451 5450 5449 5448 5447 5445 5444 5443
5553 5551 5549 5547 5545 5543 5541 5540 5538 5536 5534 5532 5530 5528 5526 5524 5522 5520 5518 5516 5514 5512 5511 5509 5507 5505 5503 5501 5499 5497 5495 5494 5492 5490 5488 5486 5485 5483 5481 5479 5477 5475 5473 5471 5469 5467 5466 5464 5462 5461 5459 5457 5456 5454 5452 5451 5449 5447 5446 5445 5443 5442 5441 5440 5439 5437 5436 5434 5433
5548 5546 5544 5542 5541 5539 5537 5535 5533 5531 5529 5527 5525 5523 5521 5519 5517 5516 5514 5512 5510 5508 5506 5504 5502 5500 5498 5496 5494 5492 5490 5488 5486 5485 5482 5481 5478 5476 5474 5472 5470 5468 5466 5464 5462 5461 5459 5457 5455 5453 5451 5450 5448 5446 5445 5443 5441 5439 5438 5436 5435 5434 5432 5431 5430 5429 5427 5426 5425
5544 5542 5540 5538 5536 5534 5532 5531 5529 5526 5525 5522 5521 5519 5517 5516 5514 5512 5510 5508 5506 5504 5501 5499 5497 5495 5493 5491 5489 5487 5485 5483 5481 5479 5476 5474 5472 5470 5468 5466 5463 5461 5459 5457 5455 5454 5452 5450 5448 5446 5444 5442 5441 5439 5437 5436 5434 5432 5430 5429 5427 5426 5425 5423 5422 5421 5419 5418 5417
5539 5537 5536 5533 5531 5530 5528 5526 5524 5522 5520 5518 5517 5515 5513 5511 5510 5508 5506 5503 5501 5499 5496 5494 5492 5490 5488 5486 5484 5482 5480 5477 5475 5473 5471 5468 5466 5464 5461 5459 5457 5455 5452 5450 5448 5446 5444 5442 5440 5438 5436 5435 5433 5431 5430 5428 5426 5425 5423 5422 5420 5419 5418 5416 5415 5414 5412 5411 5410
5535 5533 5531 5529 5527 5525 5524 5522 5520 5518 5516 5515 5513 5511 5509 5507 5505 5503 5501 5498 5496 5494 5491 5490 5487 5486 5483 5481 5479 5477 5474 5472 5470 5467 5465 5462 5460 5457 5455 5453 5451 5448 5446 5444 5441 5439 5437 5435 5433 5431 5429 5427 5425 5424 5423 5421 5420 5418 5416 5415 5413 5412 5411 5409 5408 5407 5405 5404 5403
5531 5529 5527 5525 5523 5521 5520 5518 5516 5515 5513 5511 5509 5507 5505 5503 5500 5498 5496 5493 5491 5489 5486 5485 5483 5481 5478 5476 5474 5471 5469 5466 5464 5461 5459 5457 5454 5452 5449 5447 5445 5442 5440 5437 5435 5433 5431 5428 5426 5424 5421 5420 5418 5417 5415 5414 5412 5411 5409 5408 5406 5405 5404 5402 5401 5400 5399 5398 5397
5527 5525 5523 5521 5520 5518 5516 5514 5512 5511 5509 5507 5505 5503 5500 5498 5496 5493 5491 5488 5486 5484 5482 5480 5478 5476 5473 5471 5468 5466 5463 5461 5458 5456 5454 5451 5449 5446 5444 5441 5439 5436 5434 5431 5429 5427 5424 5422 5420 5418 5416 5413 5412 5410 5409 5407 5406 5404 5403 5401 5400 5399 5398 5396 5395 5394 5393 5392 5391
5523 5521 5519 5517 5516 5514 5512 5510 5509 5507 5505 5503 5501 5498 5496 5493 5491 5488 5486 5484 5481 5479 5477 5475 5472 5470 5468 5465 5463 5460 5458 5455 5453 5450 5448 5446 5443 5441 5438 5435 5433 5430 5428 5426 5423 5421 5419 5416 5414 5411 5409 5407 5405 5404 5402 5401 5399 5397 5396 5395 5394 5393 5392 5391 5390 5389 5388 5387 5386
5519 5517 5516 5514 5512 5510 5508 5506 5505 5502 5500 5498 5496 5493 5491 5489 5486 5484 5482 5479 5477 5475 5472 5470 5467 5465 5462 5460 5457 5455 5452 5450 5447 5445 5442 5440 5437 5435 5432 5429 5426 5424 5422 5420 5417 5415 5412 5410 5408 5405 5403 5401 5399 5397 5396 5394 5392 5391 5390 5389 5388 5387 5386 5386 5385 5384 5383 5383 5382
5515 5513 5511 5510 5508 5506 5504 5502 5500 5498 5496 5494 5491 5489 5486 5484 5482 5480 5477 5475 5472 5470 5468 5465 5462 5460 5457 5455 5452 5449 5447 5444 5441 5439 5436 5433 5431 5428 5426 5423 5420 5418 5416 5413 5411 5409 5406 5403 5401 5399 5396 5394 5392 5390 5389 5387 5386 5385 5384 5384 5383 5382 5381 5381 5380 5380 5379 5379 5379
5511 5509 5507 5506 5504 5502 5500 5498 5496 5494 5491 5489 5487 5484 5482 5480 5477 5475 5473 5470 5468 5465 5463 5460 5457 5455 5452 5449 5447 5444 5441 5438 5436 5433 5431 5428 5425 5422 5419 5417 5414 5411 5409 5407 5405 5402 5399 5396 5394 5392 5390 5388 5386 5384 5383 5381 5381 5380 5379 5379 5378 5377 5377 5376 5376 5376 5376 5376 5376
5507 5505 5503 5501 5500 5498 5496 5494 5491 5489 5487 5485 5482 5480 5477 5475 5472 5470 5468 5465 5463 5460 5457 5455 5452 5449 5447 5444 5441 5439 5436 5433 5430 5427 5425 5422 5419 5416 5413 5410 5408 5405 5403 5400 5398 5395 5393 5390 5388 5386 5383 5381 5380 5378 5377 5376 5376 5375 5375 5374 5374 5374 5373 5373 5373 5373 5373 5373 5373
5503 5501 5499 5497 5496 5494 5491 5489 5487 5485 5483 5480 5478 5475 5473 5470 5468 5465 5463 5460 5457 5455 5452 5449 5446 5444 5441 5439 5436 5433 5431 5427 5425 5421 5419 5416 5413 5410 5407 5404 5401 5399 5396 5394 5391 5389 5386 5384 5381 5379 5377 5376 5374 5373 5372 5372 5371 5371 5371 5370 5370 5370 5370 5370 5370 5370 5370 5370 5370
5499 5497 5496 5494 5491 5490 5487 5485 5483 5481 5478 5476 5473 5471 5468 5466 5463 5460 5457 5455 5452 5449 5446 5444 5441 5438 5436 5433 5431 5428 5425 5422 5419 5416 5413 5410 5407 5404 5401 5398 5395 5392 5390 5388 5385 5383 5380 5378 5376 5374 5372 5371 5370 5369 5369 5368 5368 5367 5367 5367 5367 5367 5367 5367 5368 5367 5367 5367 5367
5495 5493 5491 5490 5487 5485 5483 5481 5478 5476 5474 5471 5469 5466 5464 5461 5458 5455 5452 5449 5446 5444 5441 5438 5436 5433 5430 5428 5425 5422 5419 5416 5413 5410 5407 5404 5401 5398 5395 5392 5389 5386 5384 5381 5379 5377 5375 5373 5371 5369 5368 5367 5366 5366 5365 5365 5365 5364 5364 5364 5364 5365 5365 5365 5365 5365 5364 5364 5364
5491 5490 5487 5486 5483 5481 5479 5476 5474 5472 5469 5467 5464 5462 5459 5456 5453 5450 5447 5444 5441 5438 5436 5433 5430 5427 5425 5422 5419 5416 5413 5410 5407 5404 5401 5397 5395 5392 5389 5386 5383 5381 5378 5376 5374 5372 5370 5368 5367 5366 5364 5363 5363 5362 5362 5362 5362 5362 5362 5362 5362 5362 5362 5362 5362 5361 5361 5361 5361
5487 5486 5484 5481 5480 5477 5475 5472 5470 5467 5465 5462 5460 5457 5454 5451 5448 5445 5442 5439 5436 5433 5431 5427 5425 5422 5419 5416 5413 5410 5407 5404 5401 5397 5394 5391 5388 5386 5383 5381 5378 5376 5373 5371 5369 5367 5366 5364 5363 5362 5361 5361 5360 5360 5359 5359 5359 5359 5359 5359 5359 5359 5359 5359 5359 5358 5358 5358 5357
5483 5481 5480 5478 5476 5473 5471 5468 5466 5463 5461 5458 5455 5452 5449 5446 5443 5440 5437 5434 5431 5429 5426 5422 5419 5416 5414 5411 5407 5404 5401 5398 5394 5391 5388 5385 5382 5380 5377 5375 5373 5371 5368 5366 5365 5363 5362 5361 5360 5359 5358 5358 5357 5357 5357 5357 5357 5357 5356 5356 5356 5356 5356 5356 5356 5355 5355 5354 5354
5479 5477 5476 5473 5471 5469 5466 5464 5461 5459 5456 5453 5450 5447 5444 5441 5438 5436 5432 5430 5426 5424 5421 5418 5415 5411 5408 5405 5402 5398 5395 5392 5388 5385 5381 5379 5376 5374 5372 5370 5368 5366 5364 5362 5361 5360 5359 5358 5357 5356 5356 5356 5355 5355 5355 5354 5354 5354 5354 5354 5354 5353 5353 5353 5352 5352 5351 5351 5351
5476 5473 5471 5469 5467 5465 5462 5460 5457 5454 5451 5448 5446 5443 5440 5437 5434 5431 5428 5425 5422 5419 5416 5413 5410 5406 5403 5400 5396 5393 5390 5386 5383 5379 5376 5373 5371 5369 5367 5366 5364 5362 5360 5359 5357 5356 5356 5355 5355 5354 5354 5353 5353 5352 5352 5352 5352 5351 5351 5351 5351 5350 5350 5349 5349 5348 5348 5347 5347
5472 5470 5467 5465 5462 5460 5458 5455 5452 5450 5447 5444 5441 5438 5435 5432 5429 5426 5423 5420 5417 5414 5411 5408 5405 5401 5398 5395 5391 5388 5384 5381 5377 5374 5371 5368 5366 5364 5363 5361 5360 5359 5357 5356 5355 5354 5353 5353 5352 5352 5351 5351 5350 5350 5350 5350 5349 5349 5348 5348 5347 5347 5346 5346 5345 5345 5344 5344 5343
5468 5466 5464 5461 5458 5456 5453 5451 5448 5445 5442 5439 5436 5433 5431 5427 5425 5421 5419 5416 5413 5410 5406 5403 5400 5396 5393 5389 5386 5382 5378 5375 5372 5369 5366 5364 5362 5361 5359 5358 5356 5355 5354 5353 5352 5351 5351 5350 5350 5349 5349 5348 5348 5348 5347 5347 5346 5346 5345 5345 5344 5343 5343 5342 5341 5341 5340 5340 5339
5465 5462 5460 5457 5455 5452 5449 5446 5443 5441 5438 5435 5432 5429 5426 5423 5420 5417 5414 5411 5408 5405 5401 5398 5395 5391 5387 5383 5380 5376 5373 5370 5367 5364 5362 5360 5358 5357 5356 5355 5354 5352 5351 5350 5350 5349 5348 5348 5348 5347 5346 5346 5346 5345 5345 5344 5344 5343 5342 5342 5341 5340 5339 5339 5338 5337 5336 5336 5335
5461 5458 5456 5454 5451 5448 5445 5442 5439 5436 5433 5430 5427 5424 5421 5419 5416 5412 5409 5406 5403 5400 5397 5393 5390 5386 5382 5378 5375 5371 5368 5365 5362 5360 5358 5357 5355 5354 5353 5352 5351 5350 5349 5348 5347 5347 5346 5346 5345 5345 5344 5344 5343 5343 5342 5341 5341 5340 5340 5339 5338 5337 5336 5335 5334 5334 5333 5332 5331
5456 5454 5452 5449 5447 5444 5441 5438 5435 5432 5429 5426 5423 5420 5417 5414 5411 5408 5404 5401 5398 5395 5391 5388 5385 5381 5377 5373 5370 5367 5364 5361 5359 5356 5355 5353 5352 5351 5350 5350 5349 5348 5347 5346 5345 5345 5344 5343 5343 5342 5342 5341 5341 5340 5339 5339 5338 5337 5336 5336 5335 5334 5333 5332 5331 5331 5330 5329 5328
5452 5450 5447 5445 5442 5439 5436 5433 5430 5427 5424 5421 5418 5416 5412 5409 5406 5403 5400 5396 5393 5390 5386 5383 5380 5376 5372 5369 5366 5363 5360 5358 5355 5353 5352 5351 5350 5348 5347 5347 5346 5346 5345 5344 5343 5342 5342 5341 5341 5340 5339 5339 5338 5337 5336 5336 5335 5334 5334 5333 5332 5331 5330 5329 5328 5327 5326 5326 5324
5448 5446 5443 5440 5437 5434 5431 5429 5426 5423 5420 5417 5414 5411 5408 5405 5401 5398 5395 5391 5388 5385 5381 5378 5375 5371 5368 5364 5361 5359 5357 5355 5353 5351 5349 5348 5347 5346 5345 5345 5344 5344 5343 5342 5341 5341 5340 5339 5338 5337 5337 5336 5335 5335 5334 5333 5332 5331 5331 5330 5329 5328 5327 5326 5325 5324 5323 5321 5320
5444 5441 5439 5436 5433 5430 5427 5424 5421 5418 5416 5412 5410 5406 5403 5400 5397 5393 5390 5386 5383 5380 5376 5373 5370 5366 5363 5360 5358 5356 5354 5352 5350 5348 5347 5346 5344 5343 5343 5342 5342 5341 5341 5340 5339 5339 5338 5337 5336 5335 5334 5334 5333 5332 5331 5331 5330 5329 5328 5327 5326 5325 5324 5323 5321 5320 5319 5317 5316
5440 5437 5434 5431 5429 5426 5423 5420 5417 5414 5411 5408 5405 5402 5399 5396 5392 5389 5386 5382 5378 5375 5371 5368 5365 5362 5359 5356 5354 5352 5351 5350 5348 5346 5345 5343 5342 5341 5341 5340 5340 5340 5339 5338 5337 5336 5336 5335 5334 5333 5332 5331 5331 5330 5329 5328 5327 5326 5325 5324 5323 5321 5320 5319 5318 5316 5315 5313 5312